User: anonymous   Login
Location: Unspecified
(0.0000°N, 0.0000°E)
Time: 00:24:35
(UTC+00:00)
Language:

DMSP B5D2-7 - Orbit

View from above orbital plane
View from above orbital plane
View from above satellite
View from above satellite

Ground track
Ground track

The orbit data is extracted from the following two-line orbital elements,

1 23233U 94057A   17053.22619351 0.00000040  00000-0  20441-4 0    05
2 23233  99.0716  58.1935 0009000 233.5697 126.4302 14.15625306    03
Epoch (UTC): 22 February 2017 05:25:43
Eccentricity: 0.0009000
inclination: 99.0716°
perigee height: 833 km
apogee height: 846 km
right ascension of ascending node: 58.1935°
argument of perigee: 233.5697°
revolutions per day: 14.15625306
mean anomaly at epoch: 126.4302°
orbit number at epoch: 0

The dashed part of the orbit path shows where the satellite is in the earth's shadow,  

DLR